Showing default

COSMOS 89, 1587

Orbit data source: Space-Track

COSMOS 89, 1587 is a payload satellite owned by OKB-10 (CIS) in LEO that was launched on Sat, 18 Sep 1965 UTC via a KOSMOS 65S3 launch vehicle from the Tyuratam Missile And Space Complex (TTMTR). Payload-class satellites include a variety of spacecraft equipped with specific instruments for various scientific and technological missions. These include communications satellites like Starlink; space stations such as the ISS; scientific satellites like the Hubble; Earth observation satellites from companies like Planet Labs, Umbra, and HawkEye 360; GPS; miniature CubeSats for education and research; and military/defense satellites.

Loading next visibility...
Identifier
1587, 1965-073D
Orbit
LEO
Country
Flag of CISCIS
Related business
Manufacturer
OKB-10
Mission
Spacecraft
Bus & Motor
STRELA-1 11F610, Unknown motor
Mass
50 kg wet, 50 kg dry
Launch date (UTC)
1965-09-18 (60 years ago)
Launch vehicle
KOSMOS 65S3
Launch site
Tyuratam Missile And Space Complex (TTMTR)
Object type
Payload
Rocket body
Debris
Shape & HBR
Unknown
Radar Cross Section
Medium (>0.1 m² and <1 m²)

Expand to show TLE details & history
Last TLE update: 6 hours ago

TLE from 6 hours ago
0 COSMOS 89
1 01587U 65073D   25291.33915201 -.00000093  00000-0 -59067-5 0  9991
2 01587  56.0576  64.9796 0167001 350.6906   9.0913 12.38985508718880
Epoch: 2025-10-18T08:08Z
TLE epoch observation values (Epoch: 2025-10-18T08:08:22.733Z)
Latitude
-0.00001°
Longitude
-84.18672°
Altitude
1,381.918 km
Speed
7.228 km/s
True Right ascension
04h 19m 55s
True Declination
0° 00' 00"
Sunlit
Object was in full shadow at epoch
Visualization orbit readout
Latitude
Unknown
Longitude
Unknown
Altitude
Unknown
Speed
Unknown
Apparent Right ascension
Unknown
Apparent Declination
Unknown
Sunlit
N/A
Visualization observer readout
Local Sidereal Time
08:38:34
Azimuth
Unknown
Elevation
Unknown
Doppler factor
Unknown
Orbital elements
Apogee altitude
1,642.476 km
Perigee altitude
1,378.986 km
Semi-major axis
7,888.868 km
Eccentricity
0.0167
Inclination
56.0576°
RAAN
64.9796°
Arg. of periapsis
350.6906°
True anomaly
9.40004°
Mean anomaly
9.0913°
Eccentric anomaly
9.24502°
Mean motion
3.09757 °/min
Orbital period
116.22 mins
BSTAR
-0.0000059067
Loading maneuver chart data...
Computing Atmospheric mass density...
Loading historical data...
Loading historical data...
Loading historical data...
Loading historical data...
Loading historical data...
Loading historical data...
Loading historical data...

Documentation

Showing up to 5 results
|